Hourly Weather Otradnoe

Today, 30 July, Friday

Time Temperature Precipitation Wind Pressure Humidity
00:00 +20°C° 0 mm 1 mps 737 mmHg 77%
01:00 +19°C° 0 mm 2 mps 737 mmHg 79%
02:00 +20°C° 0 mm 1 mps 737 mmHg 79%
03:00 +20°C° 0.1 mm 1 mps 737 mmHg 81%
04:00 +20°C° 0.1 mm 1 mps 737 mmHg 82%
05:00 +20°C° 0.1 mm 1 mps 737 mmHg 83%
06:00 +21°C° 0.1 mm 1 mps 737 mmHg 82%
07:00 +22°C° 0.1 mm 1 mps 737 mmHg 81%
08:00 +22°C° 0.1 mm 1 mps 737 mmHg 80%
09:00 +22°C° 0.5 mm 1 mps 737 mmHg 83%
10:00 +21°C° 0.5 mm 1 mps 737 mmHg 87%
11:00 +21°C° 0.5 mm 1 mps 737 mmHg 90%
12:00 +22°C° 0.2 mm 1 mps 736 mmHg 87%
13:00 +22°C° 0.2 mm 1 mps 736 mmHg 84%
14:00 +23°C° 0.2 mm 1 mps 736 mmHg 82%
15:00 +23°C° 0.4 mm 2 mps 736 mmHg 81%
16:00 +23°C° 0.4 mm 2 mps 736 mmHg 80%
17:00 +22°C° 0.4 mm 3 mps 735 mmHg 80%
18:00 +21°C° 0.1 mm 2 mps 736 mmHg 84%
19:00 +20°C° 0.1 mm 2 mps 736 mmHg 89%
20:00 +19°C° 0.1 mm 2 mps 736 mmHg 93%
21:00 +19°C° 0 mm 2 mps 736 mmHg 92%
22:00 +18°C° 0 mm 2 mps 736 mmHg 91%
23:00 +18°C° 0 mm 2 mps 736 mmHg 90%

Tomorrow, 31 July, Saturday

Time Temperature Precipitation Wind Pressure Humidity
00:00 +18°C° 0 mm 2 mps 736 mmHg 90%
01:00 +17°C° 0 mm 3 mps 736 mmHg 90%
02:00 +16°C° 0 mm 3 mps 736 mmHg 90%
03:00 +16°C° 0 mm 3 mps 736 mmHg 89%
04:00 +16°C° 0 mm 3 mps 736 mmHg 87%
05:00 +16°C° 0 mm 3 mps 736 mmHg 86%
06:00 +18°C° 0 mm 4 mps 736 mmHg 75%
07:00 +20°C° 0 mm 4 mps 736 mmHg 65%
08:00 +22°C° 0 mm 5 mps 736 mmHg 54%
09:00 +23°C° 0 mm 6 mps 736 mmHg 48%
10:00 +24°C° 0 mm 6 mps 737 mmHg 43%
11:00 +26°C° 0 mm 7 mps 737 mmHg 37%
12:00 +26°C° 0 mm 7 mps 737 mmHg 38%
13:00 +27°C° 0 mm 7 mps 737 mmHg 39%
14:00 +27°C° 0 mm 6 mps 737 mmHg 39%
15:00 +26°C° 0 mm 6 mps 737 mmHg 42%
16:00 +26°C° 0 mm 5 mps 737 mmHg 45%
17:00 +25°C° 0 mm 5 mps 738 mmHg 47%
18:00 +23°C° 0 mm 4 mps 738 mmHg 53%
19:00 +21°C° 0 mm 3 mps 738 mmHg 60%
20:00 +20°C° 0 mm 2 mps 738 mmHg 66%
21:00 +19°C° 0 mm 2 mps 738 mmHg 69%
22:00 +19°C° 0 mm 3 mps 739 mmHg 72%
23:00 +18°C° 0 mm 3 mps 739 mmHg 75%

Day after tomorrow, 1 August, Sunday

Time Temperature Precipitation Wind Pressure Humidity
00:00 +18°C° 0 mm 2 mps 739 mmHg 76%
01:00 +17°C° 0 mm 2 mps 739 mmHg 78%
02:00 +17°C° 0 mm 2 mps 740 mmHg 80%
03:00 +17°C° 0 mm 2 mps 740 mmHg 78%
04:00 +17°C° 0 mm 2 mps 740 mmHg 77%
05:00 +17°C° 0 mm 2 mps 740 mmHg 76%
06:00 +19°C° 0 mm 2 mps 740 mmHg 69%
07:00 +20°C° 0 mm 3 mps 740 mmHg 62%
08:00 +22°C° 0 mm 3 mps 741 mmHg 55%
09:00 +21°C° 0.5 mm 2 mps 741 mmHg 66%
10:00 +20°C° 0.5 mm 2 mps 740 mmHg 76%
11:00 +19°C° 0.5 mm 2 mps 740 mmHg 87%
12:00 +21°C° 0.5 mm 1 mps 740 mmHg 86%
13:00 +21°C° 0.5 mm 1 mps 740 mmHg 86%
14:00 +22°C° 0.5 mm 1 mps 739 mmHg 85%
15:00 +22°C° 1.1 mm 1 mps 739 mmHg 86%
16:00 +22°C° 1.1 mm 1 mps 739 mmHg 86%
17:00 +23°C° 1.1 mm 1 mps 739 mmHg 87%
18:00 +22°C° 0.5 mm 1 mps 739 mmHg 89%
19:00 +21°C° 0.5 mm 1 mps 739 mmHg 92%
20:00 +21°C° 0.5 mm 1 mps 739 mmHg 94%
21:00 +20°C° 0 mm 1 mps 739 mmHg 95%
22:00 +20°C° 0 mm 1 mps 739 mmHg 95%
23:00 +20°C° 0 mm 1 mps 739 mmHg 96%

2 August, Monday

Time Temperature Precipitation Wind Pressure Humidity
00:00 +19°C° 0 mm 1 mps 739 mmHg 96%
01:00 +19°C° 0 mm 1 mps 739 mmHg 95%
02:00 +19°C° 0 mm 1 mps 739 mmHg 95%
03:00 +19°C° 0 mm 1 mps 739 mmHg 95%
04:00 +19°C° 0 mm 1 mps 739 mmHg 94%
05:00 +19°C° 0 mm 1 mps 739 mmHg 94%
06:00 +21°C° 0 mm 1 mps 739 mmHg 87%
07:00 +22°C° 0 mm 1 mps 739 mmHg 81%
08:00 +24°C° 0 mm 2 mps 739 mmHg 75%
09:00 +26°C° 0 mm 2 mps 738 mmHg 66%
10:00 +27°C° 0 mm 3 mps 738 mmHg 58%
11:00 +29°C° 0 mm 3 mps 738 mmHg 49%
12:00 +28°C° 0.6 mm 4 mps 737 mmHg 54%
13:00 +28°C° 0.6 mm 5 mps 736 mmHg 59%
14:00 +27°C° 0.6 mm 6 mps 735 mmHg 64%
15:00 +26°C° 3.8 mm 5 mps 735 mmHg 71%
16:00 +23°C° 3.8 mm 4 mps 735 mmHg 79%
17:00 +22°C° 3.8 mm 3 mps 735 mmHg 86%
18:00 +21°C° 0.8 mm 3 mps 735 mmHg 87%
19:00 +21°C° 0.8 mm 4 mps 735 mmHg 89%
20:00 +20°C° 0.8 mm 5 mps 735 mmHg 91%
21:00 +19°C° 0.3 mm 5 mps 735 mmHg 91%
22:00 +19°C° 0.3 mm 4 mps 734 mmHg 92%
23:00 +18°C° 0.3 mm 4 mps 734 mmHg 92%

3 August, Tuesday

Time Temperature Precipitation Wind Pressure Humidity
00:00 +18°C° 0 mm 4 mps 735 mmHg 92%
01:00 +17°C° 0 mm 4 mps 735 mmHg 92%
02:00 +16°C° 0 mm 5 mps 735 mmHg 91%
03:00 +17°C° 0 mm 4 mps 736 mmHg 91%
04:00 +17°C° 0 mm 4 mps 736 mmHg 90%
05:00 +17°C° 0 mm 4 mps 736 mmHg 90%
06:00 +18°C° 0 mm 4 mps 737 mmHg 83%
07:00 +19°C° 0 mm 3 mps 737 mmHg 77%
08:00 +20°C° 0 mm 3 mps 738 mmHg 70%
09:00 +21°C° 0.1 mm 3 mps 738 mmHg 65%
10:00 +22°C° 0.1 mm 4 mps 738 mmHg 59%
11:00 +23°C° 0.1 mm 4 mps 739 mmHg 54%
12:00 +25°C° 0.1 mm 4 mps 739 mmHg 51%
13:00 +25°C° 0.1 mm 4 mps 739 mmHg 49%
14:00 +25°C° 0.1 mm 4 mps 739 mmHg 46%
15:00 +25°C° 0 mm 4 mps 739 mmHg 47%
16:00 +24°C° 0 mm 3 mps 739 mmHg 49%
17:00 +22°C° 0 mm 3 mps 740 mmHg 50%
18:00 +21°C° 0 mm 3 mps 740 mmHg 54%
19:00 +20°C° 0 mm 3 mps 741 mmHg 59%
20:00 +19°C° 0 mm 2 mps 741 mmHg 63%
21:00 +18°C° 0 mm 2 mps 741 mmHg 69%
22:00 +17°C° 0 mm 2 mps 741 mmHg 74%
23:00 +16°C° 0 mm 2 mps 742 mmHg 80%

4 August, Wednesday

Time Temperature Precipitation Wind Pressure Humidity
00:00 +15°C° 0 mm 2 mps 742 mmHg 81%
01:00 +15°C° 0 mm 2 mps 742 mmHg 83%
02:00 +15°C° 0 mm 2 mps 743 mmHg 84%
03:00 +15°C° 0 mm 2 mps 743 mmHg 83%
04:00 +15°C° 0 mm 2 mps 744 mmHg 83%
05:00 +14°C° 0 mm 1 mps 744 mmHg 82%
06:00 +16°C° 0 mm 2 mps 744 mmHg 75%
07:00 +18°C° 0 mm 2 mps 744 mmHg 67%
08:00 +20°C° 0 mm 2 mps 745 mmHg 59%
09:00 +21°C° 0 mm 2 mps 745 mmHg 54%
10:00 +23°C° 0 mm 2 mps 745 mmHg 49%
11:00 +24°C° 0 mm 2 mps 745 mmHg 44%
12:00 +24°C° 0 mm 2 mps 745 mmHg 46%
13:00 +23°C° 0 mm 2 mps 745 mmHg 48%
14:00 +23°C° 0 mm 2 mps 745 mmHg 50%
15:00 +23°C° 0 mm 2 mps 745 mmHg 51%
16:00 +23°C° 0 mm 1 mps 745 mmHg 53%
17:00 +22°C° 0 mm 1 mps 745 mmHg 55%
18:00 +22°C° 0 mm 1 mps 745 mmHg 57%
19:00 +21°C° 0 mm 1 mps 745 mmHg 59%
20:00 +20°C° 0 mm 1 mps 746 mmHg 61%
21:00 +19°C° 0 mm 1 mps 746 mmHg 60%
22:00 +19°C° 0 mm 1 mps 746 mmHg 60%
23:00 +19°C° 0 mm 1 mps 746 mmHg 60%
Show more